Bryce Canyon, UT

11:09 AM MST on December 06, 2019 (GMT -0700)
Bryce Canyon

Weather History for KBCE - August, 2019

Change the Weather History Date:

Saturday, August 31, 2019

  Actual Average Record
Temperature  
Mean Temperature 66 °F -  
Max Temperature 88 °F 74 °F 88 °F (2019)
Min Temperature 46 °F 42 °F 23 °F (1962)
Cooling Degree Days 1    
Growing Degree Days 16 (Base 50)    
Moisture  
Dew Point 26 °F    
Average Humidity 29    
Maximum Humidity 61    
Minimum Humidity 8    
Precipitation  
Precipitation 0.00 in - - ()
Sea Level Pressure  
Sea Level Pressure 29.97 in    
Wind  
Wind Speed 8 mph (West)    
Max Wind Speed 16 mph    
Max Gust Speed 21 mph    
Visibility 8 miles    
Events      
Averages and records for this station are not official NWS values.
T = Trace of Precipitation, MM = Missing Value Source: NWS Daily Summary

Daily Weather History Graph

Daily Weather History Graph

Search for Another Location

Airport or City:

Astronomy

Aug. 31, 2019 Rise Set
Actual Time 6:57 AM MDT 7:59 PM MDT
Civil Twilight 6:30 AM MDT 8:26 PM MDT
Nautical Twilight 5:58 AM MDT 8:58 PM MDT
Astronomical Twilight 5:25 AM MDT 9:31 PM MDT
Moon 8:17 AM MDT (8/31) 9:16 PM MDT (8/31)
Length of Visible Light 13h 55m
Length of Day
13h 01m
Waxing Crescent, 3% of the Moon is Illuminated
Aug 31
Waxing Crescent
Sep 5
First Quarter
Sep 13
Full
Sep 21
Last Quarter
Sep 28
New

Hourly Weather History & Observations

Time (MDT) Temp. Windchill Dew Point Humidity Pressure Visibility Wind Dir Wind Speed Gust Speed Precip Events Conditions
12:53 AM 54.0 °F - 36.0 °F 51% 29.97 in 10.0 mi West 8.1 mph - N/A   Clear
1:53 AM 53.1 °F - 35.1 °F 50% 29.96 in 4.0 mi West 11.5 mph - N/A   Haze
2:53 AM 50.0 °F - 35.1 °F 57% 29.96 in 5.0 mi West 6.9 mph - N/A   Haze
3:53 AM 48.9 °F - 34.0 °F 56% 29.97 in 8.0 mi West 10.4 mph - N/A   Clear
4:53 AM 48.0 °F - 34.0 °F 58% 29.97 in 5.0 mi West 5.8 mph - N/A   Haze
5:53 AM 46.0 °F 41.0 °F 33.1 °F 61% 30.01 in 5.0 mi West 10.4 mph - N/A   Haze
6:53 AM 46.0 °F 43.1 °F 33.1 °F 61% 30.01 in 4.0 mi West 5.8 mph - N/A   Haze
7:53 AM 50.0 °F - 34.0 °F 54% 30.03 in 4.0 mi West 6.9 mph - N/A   Haze
8:53 AM 64.0 °F - 35.1 °F 34% 30.03 in 4.0 mi West 4.6 mph - N/A   Haze
9:53 AM 73.0 °F - 39.0 °F 29% 30.00 in 10.0 mi Calm Calm - N/A   Clear
10:53 AM 80.1 °F - 27.0 °F 14% 29.98 in 10.0 mi NW 4.6 mph - N/A   Clear
11:53 AM 82.0 °F - 24.1 °F 12% 29.99 in 10.0 mi SW 8.1 mph - N/A   Clear
12:53 PM 84.0 °F - 21.0 °F 10% 29.97 in 10.0 mi West 16.1 mph - N/A   Clear
1:53 PM 84.0 °F - 21.9 °F 10% 29.96 in 10.0 mi Calm Calm - N/A   Clear
2:53 PM 86.0 °F - 19.0 °F 8% 29.94 in 10.0 mi WSW 13.8 mph 20.7 mph N/A   Clear
3:53 PM 86.0 °F - 17.1 °F 8% 29.93 in 10.0 mi Calm Calm - N/A   Clear
4:53 PM 84.9 °F - 18.0 °F 8% 29.92 in 10.0 mi North - - N/A   Clear
5:54 PM 84.9 °F - 23.0 °F 10% 29.92 in 10.0 mi WSW 8.1 mph - N/A   Unknown
6:53 PM 82.0 °F - 21.0 °F 10% 29.94 in 10.0 mi WSW 15.0 mph - N/A   Clear
7:53 PM 75.0 °F - 19.9 °F 13% 29.96 in 10.0 mi WSW 10.4 mph - N/A   Clear
8:53 PM 64.9 °F - 19.0 °F 17% 29.97 in 10.0 mi West 8.1 mph - N/A   Clear
9:53 PM 64.0 °F - 16.0 °F 16% 29.96 in 10.0 mi West 10.4 mph - N/A   Clear
10:53 PM 55.9 °F - 19.0 °F 24% 29.97 in 10.0 mi Calm Calm - N/A   Clear
11:53 PM 52.0 °F - 19.9 °F 28% 29.99 in 10.0 mi West 6.9 mph - N/A   Clear